Overview Statistics Trail Chart Weather Telemetry Raw packets
 

This is the latest recevied weather packets stored in our database for station/object OM5ZU-10. If no packets are shown the sender has not sent any weather packets the latest 10 day(s).

<< 11 12 13 14 15 16 17 >>
Time Temp. Humidity Pressure Rain* Wind** Luminosity Snow
1788293228 17.22° C 59% 1019.7 hPa - - - -
1788292328 18.33° C 55% 1019.6 hPa - - - -
1788291428 20° C 52% 1019.6 hPa - - - -
1788290527 19.44° C 52% 1019.5 hPa - - - -
1788289627 19.44° C 51% 1019.5 hPa - - - -
1788288727 20° C 50% 1019.5 hPa - - - -
1788287827 20° C 49% 1019.2 hPa - - - -
1788286927 20° C 51% 1019 hPa - - - -
1788286027 20.56° C 48% 1018.9 hPa - - - -
1788285126 21.11° C 47% 1018.7 hPa - - - -
1788284226 22.22° C 45% 1018.6 hPa - - - -
1788284156 22.22° C 45% 1018.6 hPa - - - -
1788283256 23.33° C 42% 1018.6 hPa - - - -
1788282356 23.89° C 40% 1018.6 hPa - - - -
1788281456 24.44° C 38% 1018.5 hPa - - - -
1788280555 25° C 38% 1018.4 hPa - - - -
1788279655 25.56° C 36% 1018.4 hPa - - - -
1788278755 27.22° C 35% 1018.4 hPa - - - -
1788277855 27.22° C 33% 1018.4 hPa - - - -
1788276955 27.78° C 34% 1018.4 hPa - - - -
1788276055 27.78° C 35% 1018.5 hPa - - - -
1788275154 28.89° C 34% 1018.4 hPa - - - -
1788274254 29.44° C 36% 1018.4 hPa - - - -
1788273354 28.33° C 36% 1018.4 hPa - - - -
1788272454 28.89° C 36% 1018.5 hPa - - - -

* Rain since midnight (hover to see other rain measurements)
** Current wind speed in m/s (hover to see current wind gust speed)